CT2HRB-13 Weather Reports


time (UTC)temp
C
wind
direction
speed
KPH
gust
KPH
rain 1hr
cm
rain 24hr
cm
rain mn
cm
humidity
%
barometer
mb
20260508142001 19 0.0 0.0 0.00 0.00 0.00 55 1007.7
20260508141501 19 0.0 0.0 0.00 0.00 0.00 56 1007.7
20260508141001 19 0.0 0.0 0.00 0.00 0.00 55 1007.5
20260508140501 19 0.0 0.0 0.00 0.00 0.00 54 1007.9
20260508140001 20 0.0 0.0 0.00 0.00 0.00 54 1008.1
20260508135502 20 0.0 0.0 0.00 0.00 0.00 52 1008.1
20260508135001 20 0.0 0.0 0.00 0.00 0.00 53 1008.1
20260508134501 20 0.0 0.0 0.00 0.00 0.00 54 1007.9
20260508134001 20 0.0 0.0 0.00 0.00 0.00 53 1008.1
20260508133502 20 0.0 0.0 0.00 0.00 0.00 51 1008.2
20260508133001 20 0.0 0.0 0.00 0.00 0.00 51 1008.1
20260508132502 20 0.0 0.0 0.00 0.00 0.00 53 1007.9
20260508132001 20 0.0 0.0 0.00 0.00 0.00 49 1008.1
20260508131502 20 0.0 0.0 0.00 0.00 0.00 51 1007.9
20260508131002 20 0.0 0.0 0.00 0.00 0.00 50 1008.2
20260508130501 20 0.0 0.0 0.00 0.00 0.00 52 1007.9
20260508130001 20 0.0 0.0 0.00 0.00 0.00 50 1007.9
20260508125501 20 0.0 0.0 0.00 0.00 0.00 52 1007.9
20260508125002 19 0.0 0.0 0.00 0.00 0.00 53 1008.1
20260508124501 19 0.0 0.0 0.00 0.00 0.00 54 1008.3
20260508124001 19 0.0 0.0 0.00 0.00 0.00 55 1008.5
20260508123502 19 0.0 0.0 0.00 0.00 0.00 54 1008.3
20260508123002 19 0.0 0.0 0.00 0.00 0.00 54 1008.6
20260508122502 19 0.0 0.0 0.00 0.00 0.00 54 1008.5
20260508122002 19 0.0 0.0 0.00 0.00 0.00 53 1008.5
20260508121502 19 0.0 0.0 0.00 0.00 0.00 51 1008.6
20260508121001 19 0.0 0.0 0.00 0.00 0.00 51 1008.8
20260508120501 19 0.0 0.0 0.00 0.00 0.00 54 1008.9
20260508120001 19 0.0 0.0 0.00 0.00 0.00 55 1008.9
20260508115502 20 0.0 0.0 0.00 0.00 0.00 52 1008.7
20260508115001 19 0.0 0.0 0.00 0.00 0.00 53 1008.9
20260508114501 20 0.0 0.0 0.00 0.00 0.00 53 1009.0
20260508114001 19 0.0 0.0 0.00 0.00 0.00 55 1009.0
20260508113502 19 0.0 0.0 0.00 0.00 0.00 57 1009.1
20260508113001 18 0.0 0.0 0.00 0.00 0.00 60 1008.9
20260508112501 18 0.0 0.0 0.00 0.00 0.00 60 1009.0
20260508112001 18 0.0 0.0 0.00 0.00 0.00 60 1009.0
20260508111501 18 0.0 0.0 0.00 0.00 0.00 60 1009.1
20260508111002 17 0.0 0.0 0.00 0.00 0.00 63 1009.1
20260508110501 17 0.0 0.0 0.00 0.00 0.00 65 1009.1
20260508110001 17 0.0 0.0 0.00 0.00 0.00 64 1009.1
20260508105502 17 0.0 0.0 0.00 0.00 0.00 61 1009.2
20260508105001 17 0.0 0.0 0.00 0.00 0.00 63 1009.3
20260508104501 17 0.0 0.0 0.00 0.00 0.00 67 1009.4
20260508104001 16 0.0 0.0 0.00 0.00 0.00 67 1009.4
20260508103501 17 0.0 0.0 0.00 0.00 0.00 66 1009.4
20260508103002 17 0.0 0.0 0.00 0.00 0.00 63 1009.5
20260508102502 17 0.0 0.0 0.00 0.00 0.00 63 1009.5
20260508102002 17 0.0 0.0 0.00 0.00 0.00 61 1009.3
20260508101502 18 0.0 0.0 0.00 0.00 0.00 59 1009.3
20260508101002 18 0.0 0.0 0.00 0.00 0.00 60 1009.3
20260508100501 17 0.0 0.0 0.00 0.00 0.00 61 1009.5
20260508100002 17 0.0 0.0 0.00 0.00 0.00 59 1009.3
20260508095501 17 0.0 0.0 0.00 0.00 0.00 58 1009.4
20260508095001 17 0.0 0.0 0.00 0.00 0.00 59 1009.4
20260508094501 17 0.0 0.0 0.00 0.00 0.00 59 1009.3
20260508094002 17 0.0 0.0 0.00 0.00 0.00 60 1009.3
20260508093501 17 0.0 0.0 0.00 0.00 0.00 62 1009.2
20260508093001 17 0.0 0.0 0.00 0.00 0.00 62 1009.4
20260508092501 17 0.0 0.0 0.00 0.00 0.00 63 1009.4
20260508092002 17 0.0 0.0 0.00 0.00 0.00 63 1009.5
20260508091502 16 0.0 0.0 0.00 0.00 0.00 62 1009.3
20260508091002 16 0.0 0.0 0.00 0.00 0.00 60 1009.5
20260508090501 16 0.0 0.0 0.00 0.00 0.00 61 1009.4
20260508090002 16 0.0 0.0 0.00 0.00 0.00 63 1009.3
20260508085502 16 0.0 0.0 0.00 0.00 0.00 62 1009.4
20260508085001 16 0.0 0.0 0.00 0.00 0.00 63 1009.5
20260508084501 16 0.0 0.0 0.00 0.00 0.00 64 1009.4
20260508084001 16 0.0 0.0 0.00 0.00 0.00 65 1009.6
20260508083501 16 0.0 0.0 0.00 0.00 0.00 64 1009.5
20260508083002 16 0.0 0.0 0.00 0.00 0.00 65 1009.5
20260508082502 16 0.0 0.0 0.00 0.00 0.00 66 1009.5
20260508082001 16 0.0 0.0 0.00 0.00 0.00 67 1009.6
20260508081501 15 0.0 0.0 0.00 0.00 0.00 67 1009.4
20260508081001 15 0.0 0.0 0.00 0.00 0.00 67 1009.4
20260508080501 15 0.0 0.0 0.00 0.00 0.00 68 1009.3
20260508080001 15 0.0 0.0 0.00 0.00 0.00 68 1009.5
20260508075501 15 0.0 0.0 0.00 0.00 0.00 69 1009.4
20260508075001 15 0.0 0.0 0.00 0.00 0.00 70 1009.6
20260508074501 15 0.0 0.0 0.00 0.00 0.00 70 1009.3
20260508074002 15 0.0 0.0 0.00 0.00 0.00 70 1009.4
20260508073501 15 0.0 0.0 0.00 0.00 0.00 69 1009.4
20260508073001 15 0.0 0.0 0.00 0.00 0.00 68 1009.4
20260508072502 15 0.0 0.0 0.00 0.00 0.00 69 1009.4
20260508072001 15 0.0 0.0 0.00 0.00 0.00 71 1009.5
20260508071502 14 0.0 0.0 0.00 0.00 0.00 72 1009.4
20260508071001 14 0.0 0.0 0.00 0.00 0.00 72 1009.3
20260508070501 14 0.0 0.0 0.00 0.00 0.00 72 1009.3
20260508070002 14 0.0 0.0 0.00 0.00 0.00 75 1009.2
20260508065502 13 0.0 0.0 0.00 0.00 0.00 75 1009.1
20260508065002 13 0.0 0.0 0.00 0.00 0.00 77 1009.2
20260508064501 13 0.0 0.0 0.00 0.00 0.00 77 1009.3
20260508064001 13 0.0 0.0 0.00 0.00 0.00 77 1009.3
20260508063502 13 0.0 0.0 0.00 0.00 0.00 78 1009.1
20260508063002 13 0.0 0.0 0.00 0.00 0.00 78 1009.1
20260508062502 13 0.0 0.0 0.00 0.00 0.00 79 1009.1
20260508062001 13 0.0 0.0 0.00 0.00 0.00 79 1009.0
20260508061501 13 0.0 0.0 0.00 0.00 0.00 79 1008.9
20260508061001 12 0.0 0.0 0.00 0.00 0.00 79 1009.1
20260508060501 12 0.0 0.0 0.00 0.00 0.00 79 1009.1
20260508060002 12 0.0 0.0 0.00 0.00 0.00 79 1009.0
20260508055502 12 0.0 0.0 0.00 0.00 0.00 79 1008.9
20260508055001 12 0.0 0.0 0.00 0.00 0.00 79 1009.0
20260508054501 12 0.0 0.0 0.00 0.00 0.00 79 1009.0
20260508054002 12 0.0 0.0 0.00 0.00 0.00 79 1008.9
20260508053501 12 0.0 0.0 0.00 0.00 0.00 79 1008.9
20260508053001 12 0.0 0.0 0.00 0.00 0.00 79 1008.9
20260508052502 12 0.0 0.0 0.00 0.00 0.00 79 1008.8
20260508052001 12 0.0 0.0 0.00 0.00 0.00 79 1008.7
20260508051501 12 0.0 0.0 0.00 0.00 0.00 78 1008.7
20260508051001 12 0.0 0.0 0.00 0.00 0.00 77 1008.6
20260508050501 12 0.0 0.0 0.00 0.00 0.00 76 1008.8
20260508050001 12 0.0 0.0 0.00 0.00 0.00 76 1008.4
20260508045501 12 0.0 0.0 0.00 0.00 0.00 76 1008.4
20260508045001 12 0.0 0.0 0.00 0.00 0.00 76 1008.4
20260508044501 12 0.0 0.0 0.00 0.00 0.00 76 1008.3
20260508044002 12 0.0 0.0 0.00 0.00 0.00 76 1008.3
20260508043502 12 0.0 0.0 0.00 0.00 0.00 76 1008.3
20260508043002 13 0.0 0.0 0.00 0.00 0.00 75 1008.3
20260508042502 13 0.0 0.0 0.00 0.00 0.00 75 1008.3
20260508042001 13 0.0 0.0 0.00 0.00 0.00 75 1008.5
20260508041501 13 0.0 0.0 0.00 0.00 0.00 75 1008.7
20260508041002 13 0.0 0.0 0.00 0.00 0.00 75 1008.5
20260508040502 13 0.0 0.0 0.00 0.00 0.00 75 1008.5
20260508040001 13 0.0 0.0 0.00 0.00 0.00 74 1008.6
20260508035501 13 0.0 0.0 0.00 0.00 0.00 74 1008.6
20260508035001 13 0.0 0.0 0.00 0.00 0.00 73 1008.7
20260508034501 13 0.0 0.0 0.00 0.00 0.00 72 1008.8
20260508034001 13 0.0 0.0 0.00 0.00 0.00 72 1008.8
20260508033502 13 0.0 0.0 0.00 0.00 0.00 72 1008.8
20260508033002 13 0.0 0.0 0.00 0.00 0.00 72 1008.7
20260508032501 13 0.0 0.0 0.00 0.00 0.00 71 1008.8
20260508032002 13 0.0 0.0 0.00 0.00 0.00 71 1008.7
20260508031501 13 0.0 0.0 0.00 0.00 0.00 71 1008.8
20260508031001 13 0.0 0.0 0.00 0.00 0.00 71 1008.7
20260508030502 13 0.0 0.0 0.00 0.00 0.00 71 1008.7
20260508030002 13 0.0 0.0 0.00 0.00 0.00 72 1008.7
20260508025501 13 0.0 0.0 0.00 0.00 0.00 72 1008.7
20260508025001 13 0.0 0.0 0.00 0.00 0.00 72 1008.7
20260508024501 13 0.0 0.0 0.00 0.00 0.00 72 1008.7
20260508024002 13 0.0 0.0 0.00 0.00 0.00 71 1008.8
20260508023502 13 0.0 0.0 0.00 0.00 0.00 71 1008.8
20260508023002 13 0.0 0.0 0.00 0.00 0.00 71 1008.6
20260508022502 13 0.0 0.0 0.00 0.00 0.00 71 1008.8
20260508022002 13 0.0 0.0 0.00 0.00 0.00 71 1008.8
20260508021501 13 0.0 0.0 0.00 0.00 0.00 71 1009.0
20260508021001 13 0.0 0.0 0.00 0.00 0.00 71 1009.0
20260508020501 13 0.0 0.0 0.00 0.00 0.00 72 1009.2
20260508020002 13 0.0 0.0 0.00 0.00 0.00 72 1009.2
20260508015501 13 0.0 0.0 0.00 0.00 0.00 71 1009.3
20260508015001 13 0.0 0.0 0.00 0.00 0.00 71 1009.4
20260508014501 13 0.0 0.0 0.00 0.00 0.00 71 1009.2
20260508014002 13 0.0 0.0 0.00 0.00 0.00 71 1009.6
20260508013501 13 0.0 0.0 0.00 0.00 0.00 71 1009.5
20260508013001 13 0.0 0.0 0.00 0.00 0.00 71 1009.6
20260508012501 13 0.0 0.0 0.00 0.00 0.00 70 1009.5
20260508012002 13 0.0 0.0 0.00 0.00 0.00 70 1009.5
20260508011502 13 0.0 0.0 0.00 0.00 0.00 70 1009.5
20260508011001 13 0.0 0.0 0.00 0.00 0.00 70 1009.7
20260508010501 13 0.0 0.0 0.00 0.00 0.00 70 1009.7
20260508010001 13 0.0 0.0 0.00 0.00 0.00 70 1009.8
20260508005501 13 0.0 0.0 0.00 0.00 0.00 71 1009.7
20260508005001 13 0.0 0.0 0.00 0.00 0.00 70 1010.0
20260508004501 13 0.0 0.0 0.00 0.00 0.00 70 1009.8
20260508004002 13 0.0 0.0 0.00 0.00 0.00 70 1009.8
20260508003501 13 0.0 0.0 0.00 0.00 0.00 70 1010.0
20260508003002 13 0.0 0.0 0.00 0.00 0.00 69 1010.0
20260508002502 13 0.0 0.0 0.00 0.00 0.00 69 1009.8
20260508002002 13 0.0 0.0 0.00 0.00 0.00 69 1009.9
20260508001502 13 0.0 0.0 0.00 0.00 0.00 69 1009.8
20260508001002 13 0.0 0.0 0.00 0.00 0.00 70 1010.1
20260508000502 13 0.0 0.0 0.00 0.00 0.00 70 1010.1
20260508000001 13 0.0 0.0 0.00 0.00 0.00 69 1010.1
20260507235501 13 0.0 0.0 0.00 0.00 0.00 69 1009.9
20260507235001 13 0.0 0.0 0.00 0.00 0.00 69 1009.9
20260507234502 13 0.0 0.0 0.00 0.00 0.00 69 1010.0
20260507234001 13 0.0 0.0 0.00 0.00 0.00 69 1009.7
20260507233501 13 0.0 0.0 0.00 0.00 0.00 69 1010.0
20260507233001 13 0.0 0.0 0.00 0.00 0.00 69 1009.8
20260507232501 13 0.0 0.0 0.00 0.00 0.00 69 1009.9
20260507232001 13 0.0 0.0 0.00 0.00 0.00 69 1009.9
20260507231502 13 0.0 0.0 0.00 0.00 0.00 69 1010.0
20260507231001 13 0.0 0.0 0.00 0.00 0.00 69 1010.1
20260507230502 13 0.0 0.0 0.00 0.00 0.00 69 1010.2
20260507230002 13 0.0 0.0 0.00 0.00 0.00 69 1010.3
20260507225501 13 0.0 0.0 0.00 0.00 0.00 70 1010.3
20260507225002 13 0.0 0.0 0.00 0.00 0.00 70 1010.2
20260507224501 13 0.0 0.0 0.00 0.00 0.00 69 1010.3
20260507224002 13 0.0 0.0 0.00 0.00 0.00 69 1010.5
20260507223502 13 0.0 0.0 0.00 0.00 0.00 69 1010.5
20260507223001 13 0.0 0.0 0.00 0.00 0.00 70 1010.2
20260507222502 13 0.0 0.0 0.00 0.00 0.00 70 1010.4
20260507222002 13 0.0 0.0 0.00 0.00 0.00 70 1010.3
20260507221501 13 0.0 0.0 0.00 0.00 0.00 70 1010.3
20260507221002 13 0.0 0.0 0.00 0.00 0.00 70 1010.2
20260507220501 13 0.0 0.0 0.00 0.00 0.00 70 1010.4
20260507220002 13 0.0 0.0 0.00 0.00 0.00 70 1010.4
20260507215502 13 0.0 0.0 0.00 0.00 0.00 69 1010.6
20260507215002 13 0.0 0.0 0.00 0.00 0.00 69 1010.4
20260507214501 13 0.0 0.0 0.00 0.00 0.00 70 1010.4
20260507214001 13 0.0 0.0 0.00 0.00 0.00 70 1010.4
20260507213502 13 0.0 0.0 0.00 0.00 0.00 70 1010.6
20260507213002 13 0.0 0.0 0.00 0.00 0.00 69 1010.7
20260507212502 13 0.0 0.0 0.00 0.00 0.00 69 1010.8
20260507212001 13 0.0 0.0 0.00 0.00 0.00 69 1010.5
20260507211502 13 0.0 0.0 0.00 0.00 0.00 69 1010.6
20260507211001 13 0.0 0.0 0.00 0.00 0.00 69 1010.8
20260507210501 13 0.0 0.0 0.00 0.00 0.00 69 1010.6
20260507210001 13 0.0 0.0 0.00 0.00 0.00 69 1010.7
20260507205502 13 0.0 0.0 0.00 0.00 0.00 69 1010.6
20260507205001 13 0.0 0.0 0.00 0.00 0.00 68 1010.7
20260507204501 13 0.0 0.0 0.00 0.00 0.00 68 1010.7
20260507204002 13 0.0 0.0 0.00 0.00 0.00 68 1010.9
20260507203502 13 0.0 0.0 0.00 0.00 0.00 68 1010.5
20260507203002 13 0.0 0.0 0.00 0.00 0.00 68 1010.7
20260507202501 13 0.0 0.0 0.00 0.00 0.00 67 1010.5
20260507202001 13 0.0 0.0 0.00 0.00 0.00 67 1010.7
20260507201502 13 0.0 0.0 0.00 0.00 0.00 67 1010.5
20260507201002 13 0.0 0.0 0.00 0.00 0.00 67 1010.5
20260507200501 14 0.0 0.0 0.00 0.00 0.00 67 1010.2
20260507200001 14 0.0 0.0 0.00 0.00 0.00 67 1010.4
20260507195502 14 0.0 0.0 0.00 0.00 0.00 66 1010.3
20260507195001 14 0.0 0.0 0.00 0.00 0.00 66 1010.4
20260507194501 14 0.0 0.0 0.00 0.00 0.00 66 1010.2
20260507194001 14 0.0 0.0 0.00 0.00 0.00 65 1010.1
20260507193502 14 0.0 0.0 0.00 0.00 0.00 65 1010.3
20260507193001 14 0.0 0.0 0.00 0.00 0.00 64 1010.3
20260507192502 14 0.0 0.0 0.00 0.00 0.00 64 1010.3
20260507192001 14 0.0 0.0 0.00 0.00 0.00 62 1010.4
20260507191502 15 0.0 0.0 0.00 0.00 0.00 62 1010.2
20260507191001 15 0.0 0.0 0.00 0.00 0.00 62 1010.1
20260507190502 15 0.0 0.0 0.00 0.00 0.00 62 1010.1
20260507190002 15 0.0 0.0 0.00 0.00 0.00 61 1010.0
20260507185501 15 0.0 0.0 0.00 0.00 0.00 60 1009.9
20260507185002 15 0.0 0.0 0.00 0.00 0.00 60 1010.0
20260507184502 15 0.0 0.0 0.00 0.00 0.00 60 1010.0
20260507184002 15 0.0 0.0 0.00 0.00 0.00 61 1010.1
20260507183501 15 0.0 0.0 0.00 0.00 0.00 61 1010.0
20260507183002 15 0.0 0.0 0.00 0.00 0.00 60 1010.0
20260507182501 15 0.0 0.0 0.00 0.00 0.00 60 1010.0
20260507182001 16 0.0 0.0 0.00 0.00 0.00 59 1009.8
20260507181501 16 0.0 0.0 0.00 0.00 0.00 60 1009.9
20260507181001 16 0.0 0.0 0.00 0.00 0.00 61 1010.0
20260507180502 16 0.0 0.0 0.00 0.00 0.00 60 1010.0
20260507180001 16 0.0 0.0 0.00 0.00 0.00 62 1009.9
20260507175501 16 0.0 0.0 0.00 0.00 0.00 61 1010.0
20260507175002 16 0.0 0.0 0.00 0.00 0.00 60 1010.0
20260507174501 16 0.0 0.0 0.00 0.00 0.00 60 1009.8
20260507174002 16 0.0 0.0 0.00 0.00 0.00 59 1009.7
20260507173501 16 0.0 0.0 0.00 0.00 0.00 59 1009.6
20260507173002 16 0.0 0.0 0.00 0.00 0.00 58 1009.7
20260507172501 16 0.0 0.0 0.00 0.00 0.00 58 1009.8
20260507172001 17 0.0 0.0 0.00 0.00 0.00 57 1009.9
20260507171501 17 0.0 0.0 0.00 0.00 0.00 57 1009.8
20260507171001 16 0.0 0.0 0.00 0.00 0.00 56 1009.7
20260507170501 16 0.0 0.0 0.00 0.00 0.00 55 1009.7
20260507170001 17 0.0 0.0 0.00 0.00 0.00 55 1009.6
20260507165501 17 0.0 0.0 0.00 0.00 0.00 54 1009.7
20260507165002 17 0.0 0.0 0.00 0.00 0.00 52 1009.7
20260507164501 17 0.0 0.0 0.00 0.00 0.00 51 1009.6
20260507164002 17 0.0 0.0 0.00 0.00 0.00 48 1009.7
20260507163502 18 0.0 0.0 0.00 0.00 0.00 48 1009.7
20260507163001 18 0.0 0.0 0.00 0.00 0.00 49 1009.7
20260507162502 18 0.0 0.0 0.00 0.00 0.00 47 1009.7
20260507162002 18 0.0 0.0 0.00 0.00 0.00 46 1009.8
20260507161501 18 0.0 0.0 0.00 0.00 0.00 46 1009.8
20260507161001 18 0.0 0.0 0.00 0.00 0.00 47 1009.8
20260507160501 18 0.0 0.0 0.00 0.00 0.00 45 1009.6
20260507160001 18 0.0 0.0 0.00 0.00 0.00 48 1009.8
20260507155501 18 0.0 0.0 0.00 0.00 0.00 47 1009.6
20260507155002 18 0.0 0.0 0.00 0.00 0.00 45 1009.7
20260507154502 18 0.0 0.0 0.00 0.00 0.00 47 1009.7
20260507154002 18 0.0 0.0 0.00 0.00 0.00 46 1009.6
20260507153502 18 0.0 0.0 0.00 0.00 0.00 47 1009.9
20260507153001 18 0.0 0.0 0.00 0.00 0.00 46 1009.9
20260507152501 19 0.0 0.0 0.00 0.00 0.00 42 1009.7
20260507152001 19 0.0 0.0 0.00 0.00 0.00 45 1009.8
20260507151501 19 0.0 0.0 0.00 0.00 0.00 45 1009.8
20260507151002 19 0.0 0.0 0.00 0.00 0.00 47 1009.8
20260507150502 19 0.0 0.0 0.00 0.00 0.00 46 1009.8
20260507150002 19 0.0 0.0 0.00 0.00 0.00 46 1009.8
20260507145501 19 0.0 0.0 0.00 0.00 0.00 47 1009.9
20260507145001 19 0.0 0.0 0.00 0.00 0.00 47 1010.0
20260507144502 19 0.0 0.0 0.00 0.00 0.00 47 1010.0
20260507144001 19 0.0 0.0 0.00 0.00 0.00 46 1010.1
20260507143501 19 0.0 0.0 0.00 0.00 0.00 46 1010.0
20260507143002 19 0.0 0.0 0.00 0.00 0.00 45 1010.1
20260507142501 19 0.0 0.0 0.00 0.00 0.00 44 1010.1